Location: Madrid
(40.4000°N, 3.6830°W)
Time: 12:42:49
(UTC+01:00)

ISS - Pass Details

Date: 22 October 2020
Orbit: 417 x 420 km, 51.6° (Epoch: 29 October)

Event Time Altitude Azimuth Distance (km) Brightness Sun altitude
Exits shadow 07:34:16 - 212° (SSW) 2,223 -0.4 -12.0°
Reaches altitude 10° 07:36:08 10° 205° (SSW) 1,485 -1.2 -11.6°
Maximum altitude 07:39:14 36° 136° (SE) 674 -2.2 -11.0°
Drops below altitude 10° 07:42:21 10° 68° (ENE) 1,494 0.1 -10.4°
Sets 07:44:32 0° 60° (ENE) 2,361 1.0 -10.0°
